Regional Weather Roundup
Issued by NWS

Home | Current Version | Previous Version | Graphics & Text | Print | Product List | Glossary On
Versions: 1 2 3 4 5 6 7 8 9 10 11 12 13 14 15 16 17 18 19 20 21 22 23 24 25 26 27 28 29 30 31 32 33 34 35 36 37 38 39 40 41 42 43 44 45 46 47 48 49 50
476
ASUS43 KMPX 171810
RWRMN
WEATHER ROUNDUP FOR MINNESOTA
NATIONAL WEATHER SERVICE TWIN CITIES/CHANHASSEN MN
1200 PM CST WED JAN 17 2018


NOTE: "FAIR" INDICATES FEW OR NO CLOUDS BELOW 12,000 FEET WITH NO
SIGNIFICANT WEATHER AND/OR OBSTRUCTIONS TO VISIBILITY. N/A MEANS
CURRENT SKY AND/OR WEATHER CONDITIONS ARE NOT AVAILABLE.

MNZ060>063-068>070-171900-
   Twin Cities Metro

CITY           SKY/WX    TMP DP  RH WIND       PRES   REMARKS
TWIN CITIES    FAIR      17   5  59 SW10G23   30.23F WCI   5
6HR MIN TEMP:   3; 6HR MAX TEMP:  17;

ST PAUL        FAIR      19   4  51 SW14      30.24F WCI   6
CRYSTAL        FAIR      18   3  52 SW10      30.19F WCI   6
BLAINE         MOSUNNY   19   7  58 SW12G18   30.19F WCI   7
LAKEVILLE      FAIR      18   7  62 SW5       30.23F WCI  11
EDEN PRAIRIE   FAIR      19   6  57 SW14      30.21F WCI   6
6HR MIN TEMP:   2; 6HR MAX TEMP:  19;

SOUTH ST PAUL  FAIR      21   5  49 SW12G17   30.23F WCI   9
LAKE ELMO      FAIR      21   9  58 S10       30.22F WCI  10
$$
MNZ001>005-007-008-013>017-022>024-027-028-171900-
   Northwest Minnesota

CITY           SKY/WX    TMP DP  RH WIND       PRES   REMARKS
BEMIDJI        FAIR      26   7  44 SW13      29.94F WCI  15
HALLOCK        FAIR      16   9  73 S17       29.89F WCI   0
ROSEAU         FAIR      18   9  68 SW18      29.86F WCI   2
WARROAD          N/A     16   7  67 SW14      29.86F HAZE    WCI   1
THIEF RVR FALL FAIR      13   6  74 SW18      29.94F WCI  -4
CROOKSTON      FAIR      14   9  79 SW18      29.99F WCI  -3
FOSSTON        FAIR      18   7  62 SW18      29.99F WCI   2
DETROIT LAKES  FAIR      21   9  58 SW14G20   30.04F WCI   8
MOORHEAD       FAIR      18   9  68 S7        30.08F WCI   8
PARK RAPIDS    FAIR      20   6  55 W14       30.00F WCI   7
MAHNOMEN       FAIR      15   7  71 SW16      30.03S WCI  -1
$$
MNZ006-009>011-018-025>026-171900-
   North Central Minnesota

CITY           SKY/WX    TMP DP  RH WIND       PRES   REMARKS
BAUDETTE       FAIR      19   6  57 SW14      29.85F WCI   6
FLAG ISLAND    FAIR      18   7  62 SW10      29.83F WCI   6
INTL FALLS     FAIR      24   7  48 W12G21    29.85F WCI  13
6HR MIN TEMP:   8; 6HR MAX TEMP:  25;

WASKISH        FAIR      19  10  68 W18G25    29.90F WCI   4
BIG FORK       FAIR      23   7  50 SW15      29.89F WCI  10
LONGVILLE      FAIR      25   3  39 SW9G17    29.98F WCI  15
GRAND RAPIDS   FAIR      27   6  41 SW8       29.96F WCI  19
CRANE LAKE     FAIR      25   7  46 SW9       29.87F WCI  15
ORR            FAIR      27   3  36 SW9       29.85F WCI  17
COOK           FAIR      25   9  50 SW12      29.88F WCI  14
WALKER         FAIR      23   3  42 SW15      29.97S WCI  10
$$
MNZ012-019>021-037-171900-
   Northeast Minnesota

CITY           SKY/WX    TMP DP  RH WIND       PRES   REMARKS
DULUTH         FAIR      16   3  56 W20G30    29.96F WCI  -1
6HR MIN TEMP:   3; 6HR MAX TEMP:  16;

ELY            FAIR      19   5  53 SW13G20   29.86F WCI   7
HIBBING        FAIR      20   6  55 S8        29.92F WCI  10
EVELETH        FAIR      20   3  48 SW16      29.92F WCI   6
DULUTH HARBOR  FAIR      19   5  53 SW21G26   30.03F WCI   3
TWO HARBORS    LGT SNOW  27   7  43 SW15G25   29.92F VSB 1   WCI  15
GRAND MARAIS     N/A     27  21  78 SW24G32   29.88F WCI  12
G MARAIS ARPRT FAIR      27   5  39 SW8G16    29.80F WCI  18
$$
MNZ029>031-032-039>041-046>048-054>057-064-171900-
   West Central Minnesota

CITY           SKY/WX    TMP DP  RH WIND       PRES   REMARKS
FERGUS FALLS   FAIR      19   9  63 SW6       30.13F WCI  11
WHEATON        SUNNY     28  10  47 CALM      30.13F
MORRIS         SUNNY     25  10  54 SW8       30.12S WCI  16
ALEXANDRIA     FAIR      20   7  57 SW15      30.10F WCI   6
ELBOW LAKE     FAIR      22  11  61 W10       30.11F HAZE    WCI  11
WADENA         FAIR      19   5  53 SW14      30.04F WCI   6
GLENWOOD       FAIR      21   9  58 SW14      30.11F WCI   8
APPLETON       SUNNY     27  10  50 SW10      30.12F WCI  17
BENSON         CLOUDY    23   9  54 SW12      30.15F WCI  12
ORTONVILLE     SUNNY     30  10  43 SW10G16   30.11F WCI  21
MADISON        SUNNY     30  14  51 SW14      30.12F WCI  20
WILLMAR        FAIR      21  10  63 SW12      30.16F WCI   9
$$
MNZ033>034-036-042>043-049>051-058-059-171900-
   Central Minnesota

CITY           SKY/WX    TMP DP  RH WIND       PRES   REMARKS
ST CLOUD       FAIR      17   7  64 S14       30.13F WCI   3
6HR MIN TEMP:   0; 6HR MAX TEMP:  17;

SAUK CENTRE      N/A     20   7  56 SW10      30.11F WCI   9
PAYNESVILLE    FAIR      21  10  60 SW15G22   30.14F WCI   8
AITKIN         FAIR      19   1  45 SW12      30.02F WCI   7
PINE RIVER     FAIR      21   3  45 SW10      30.05F WCI  10
BRAINERD       FAIR      19   3  49 SW13      30.06F WCI   6
STAPLES        FAIR      21   3  45 SW8       30.06F WCI  12
LONG PRAIRIE   FAIR      21   9  58 S10       30.10F WCI  10
LITTLE FALLS   FAIR      19   0  42 S10       30.11F WCI   8
LITCHFIELD     FAIR      21  10  63 SW7       30.15F WCI  13
BUFFALO        FAIR      18   6  60 S10G17    30.19F WCI   6
MAPLE LAKE     FAIR      20   9  62 MISG      30.18F
HUTCHINSON     FAIR      21  10  62 S10G16    30.20F WCI  10
$$
MNZ037-044-045-052-053-171900-
   East Central Minnesota

CITY           SKY/WX    TMP DP  RH WIND       PRES   REMARKS
PRINCETON      FAIR      19   7  58 S12G17    30.14F WCI   7
MORA           FAIR      18   5  57 SW13      30.14F WCI   4
CAMBRIDGE      FAIR      19   7  58 SW9       30.16F WCI   9
RUSH CITY      FAIR      17   4  55 S10       30.15F WCI   5
MOOSE LAKE     FAIR      18   1  49 SW16G22   30.04F WCI   3
HINCKLEY       FAIR      18   5  57 S14       30.12F WCI   4
CLOQUET        FAIR      18   0  45 SW13G18   30.00F WCI   4
MCGREGOR       FAIR      19   5  53 SW13G21   30.04F WCI   7
$$
MNZ071>073-080-081-089-090-097-098-171900-
   Southwest Minnesota

CITY           SKY/WX    TMP DP  RH WIND       PRES   REMARKS
MONTEVIDEO     SUNNY     27  10  50 W13G20    30.14F WCI  16
GRANITE FALLS  SUNNY     25  13  60 S17       30.17F WCI  11
CANBY          CLOUDY    28  12  52 SW23G32   30.12F WCI  13
MARSHALL       CLOUDY    23  10  57 SW20G25   30.16F WCI   8
REDWOOD FALLS  SUNNY     21  10  62 SW16      30.20F WCI   7
OLIVIA         SUNNY     23  12  63 S15       30.16F WCI  10
PIPESTONE      CLOUDY    16   7  67 SW14      30.22F WCI   1
WINDOM         CLOUDY    21   1  42 SW21      30.24F WCI   6
WORTHINGTON    CLOUDY    18   8  65 SW23      30.24F WCI   0
JACKSON        CLOUDY    21  10  63 SW18G26   30.26F WCI   6
SLAYTON        CLOUDY    17   8  67 SW16G24   30.23F WCI   2
$$
MNZ065>067-074>077-082>085-091>093-171900-
   South Central Minnesota

CITY           SKY/WX    TMP DP  RH WIND       PRES   REMARKS
MANKATO        FAIR      20   8  60 SW20      30.25F WCI   4
NEW ULM        SUNNY     21   9  58 SW17      30.23F WCI   7
ST JAMES       CLOUDY    21  10  63 S13G20    30.26F WCI   9
FAIRMONT       CLOUDY    21  10  62 SW21G28   30.27F WCI   5
FARIBAULT      FAIR      18   7  62 S14G20    30.26F WCI   4
OWATONNA       FAIR      18   9  68 SW17      30.26F WCI   2
WASECA         FAIR      18   9  68 SW21      30.28F WCI   1
ALBERT LEA     FAIR      18   3  53 SW16G22   30.29F WCI   3
$$
MNZ078>079-086>088-094>096-171900-
   Southeast Minnesota

CITY           SKY/WX    TMP DP  RH WIND       PRES   REMARKS
ROCHESTER      FAIR      16   7  67 SW21G29   30.28F WCI  -1
6HR MIN TEMP:   3; 6HR MAX TEMP:  16;

RED WING       FAIR      19   1  45 W13       30.26F WCI   7
STANTON        FAIR      18   8  63 SW15      30.23F WCI   4
DODGE CENTER   FAIR      18   7  62 SW22      30.25F WCI   0
WINONA         FAIR      23   5  46 W8        30.32F WCI  14
AUSTIN         FAIR      18   7  62 SW14      30.31F WCI   4
PRESTON        FAIR      18   4  54 SW17G25   30.30F WCI   2
$$
ABBREVIATIONS USED IN REMARKS
   TC - TEMPERATURES IN CELSIUS
  WCI - WIND CHILL INDEX
   HX - HEAT INDEX
  VSB - VISIBILITY
$$




USA.gov is the U.S. government's official web portal to all federal, state and local government web resources and services.